TIANMU-1 09

Last updated on Sun Jul 06 2025 00:02:21 GMT+0000 (Coordinated Universal Time)

1 57401U 23101C 25186.60315930 .00004844 00000+0 19518-3 0 9999 2 57401 97.3042 239.5183 0003654 293.0229 67.0624 15.25302956108721
UTC large
Height (km)
Speed (km/s)
/
Latitude / Longitude
Inclination (degrees)
Orbital Period (minutes)
Azimuth
Elevation
Range (km)
Doppler Factor

Next 0 passes for location: London (51.5072 / 0.1276)

Sorry there are no passes over London.